Temp
98 99 95 88 82 93 82 85 62 70 75 79 85 92 96 97 97 97 98 97 95 94 93 90 89 89 88 85 85 86 87 84
97 99 97 92 95 80 83 62 55 69 75 65 83 90 94 95 95 96 97 96 95 94 93 92 91 91 89 87 86 87 89 88
94 89 86 88 85 86 87 73 55 61 72 87 88 94 93 96 97 97 96 95 94 94 94 93 92 91 88 88 88 89 86 84
86 95 97 94 89 90 78 74 81 78 76 89 93 98 98 98 98 98 96 96 95 94 93 92 91 91 89 89 91 91 84 82
81 91 94 88 91 91 91 89 78 75 77 92 92 97 98 98 97 95 95 95 95 94 91 90 90 89 90 90 90 89 86 86
77 82 90 84 88 89 88 79 80 81 80 84 92 94 94 94 97 97 94 93 94 93 91 89 88 86 87 88 89 87 87 85
89 91 91 89 88 88 85 86 80 83 82 85 92 93 95 99 100 97 95 94 94 93 89 88 86 86 85 88 87 87 85 84
83 89 89 86 89 90 89 89 87 88 86 93 96 98 97 98 97 96 94 95 93 92 89 88 86 85 84 85 86 86 84 83
76 86 86 79 87 88 89 92 91 83 91 98 94 95 96 97 98 97 96 94 93 92 89 88 88 87 86 84 85 83 82 80
77 80 67 86 96 95 90 92 95 94 93 97 97 97 98 99 97 95 97 94 92 93 90 89 90 87 85 84 82 81 80 78
73 73 80 85 91 88 85 86 90 89 91 93 95 97 89 95 96 95 97 99 95 97 94 89 88 83 82 82 81 78 77 77
77 69 66 82 91 95 94 79 88 89 87 88 91 84 84 92 95 96 99 99 96 98 95 91 86 85 82 79 75 74 74 76
75 72 78 88 91 93 74 74 88 89 88 87 83 86 91 94 94 98 98 98 97 93 91 89 84 80 77 74 72 76 78 77
75 71 68 87 88 78 83 89 88 89 89 88 89 92 92 92 92 89 89 82 79 73 71 72 75 75 74 74 78 77 76 77
78 72 85 89 88 90 91 87 88 88 91 91 91 91 91 89 91 89 86 78 75 73 70 71 68 76 78 76 77 74 73 72
79 84 86 88 91 91 90 89 90 92 91 92 91 92 90 89 89 88 82 79 77 77 71 68 68 68 68 75 73 71 70 70
79 83 86 87 87 87 88 91 90 91 90 91 91 91 90 87 86 84 82 82 81 79 73 70 69 68 70 72 74 72 73 75
75 81 79 81 86 88 87 88 89 88 84 85 83 79 81 82 84 83 83 80 78 75 74 73 73 74 75 76 76 74 72 75
81 87 86 87 89 89 88 89 89 85 85 79 78 80 79 78 76 72 76 74 77 78 77 78 78 77 78 77 78 76 73 80
MSLP
994.80 995.27 996.15 996.46 996.69 997.19 997.95 998.32 1002.43 1002.40 1002.16 1001.54 1000.19 998.76 998.12 998.04 998.57 999.40 999.97 1001.06 1002.48 1003.91 1005.22 1006.29 1007.39 1008.17 1008.94 1010.03 1010.78 1011.20 1011.51 1011.84
994.33 995.04 995.74 996.22 996.73 997.16 997.32 999.62 1001.65 1001.19 1000.40 1000.72 998.35 997.58 997.55 997.84 998.64 999.43 1000.24 1001.42 1002.66 1003.87 1005.20 1006.32 1007.26 1008.02 1008.82 1009.79 1010.36 1010.77 1010.96 1011.49
994.95 995.27 995.76 996.13 996.45 997.15 997.74 999.70 1000.68 999.80 998.78 998.54 997.75 996.48 996.62 997.16 998.05 999.09 1000.38 1001.60 1002.75 1003.75 1004.93 1006.17 1007.07 1007.79 1008.66 1009.43 1009.97 1010.24 1010.47 1011.22
995.04 995.55 995.96 996.07 995.94 996.08 996.83 997.55 997.81 998.06 998.67 997.94 997.11 996.35 996.54 996.92 997.50 998.48 999.95 1001.45 1002.63 1003.63 1004.74 1005.81 1006.74 1007.68 1008.39 1008.86 1009.31 1009.76 1010.39 1011.23
995.19 995.01 995.46 995.76 996.05 996.17 996.23 996.42 996.76 996.99 997.08 997.44 996.69 996.03 996.51 996.94 997.33 998.59 999.86 1001.17 1002.46 1003.50 1004.61 1005.53 1006.39 1007.32 1007.99 1008.55 1008.95 1009.61 1010.23 1010.95
995.15 994.73 994.54 995.15 995.72 996.20 996.50 996.43 996.47 996.38 997.10 997.65 996.86 996.07 996.93 997.77 997.51 998.26 999.58 1000.87 1002.11 1003.26 1004.41 1005.45 1006.24 1006.97 1007.74 1008.45 1008.95 1009.48 1010.17 1010.92
995.56 995.07 994.97 995.12 995.14 995.56 996.03 996.25 996.35 996.12 996.48 996.28 996.50 996.85 997.25 997.16 997.37 997.88 999.22 1000.59 1001.77 1002.86 1004.04 1005.24 1006.23 1006.98 1007.62 1008.32 1008.91 1009.68 1010.42 1011.22
996.23 995.83 995.53 995.30 995.26 995.33 995.45 995.55 996.04 996.20 995.78 995.94 996.20 996.54 996.80 996.94 997.59 997.80 998.75 1000.04 1001.23 1002.42 1003.59 1004.66 1005.91 1006.83 1007.69 1008.21 1008.89 1009.67 1010.48 1011.22
996.52 996.34 996.01 995.52 995.01 995.30 995.54 995.49 995.56 995.80 995.66 995.59 995.83 996.10 996.40 996.97 997.55 998.01 998.37 999.35 1000.56 1001.78 1003.03 1004.02 1005.15 1006.27 1007.23 1008.12 1008.93 1009.79 1010.69 1011.56
997.16 997.06 996.49 995.67 995.35 995.20 995.55 995.64 995.72 995.60 995.84 995.46 995.68 996.17 996.80 997.45 997.75 998.09 998.13 998.75 999.73 1000.96 1002.29 1003.49 1004.64 1006.01 1007.10 1008.33 1009.29 1010.19 1011.10 1012.04
997.85 997.79 997.26 996.63 996.17 996.31 996.51 996.58 997.30 997.19 997.07 997.09 997.10 996.87 998.11 998.51 998.37 998.43 998.41 998.41 999.13 1000.17 1001.58 1002.89 1004.09 1005.63 1006.93 1008.23 1009.46 1010.39 1011.12 1011.90
998.45 998.34 997.76 997.16 997.10 997.40 997.12 997.53 998.71 998.71 998.77 998.73 998.56 998.09 999.07 999.21 998.97 998.74 998.41 998.24 998.66 999.76 1001.06 1002.36 1003.56 1004.96 1006.59 1008.15 1009.60 1010.48 1011.31 1011.87
998.44 998.88 998.78 998.38 998.13 998.29 998.47 999.78 999.86 1000.00 1000.02 999.93 999.93 1000.04 999.87 999.70 999.53 998.96 998.78 998.42 999.07 999.66 1000.32 1001.26 1002.57 1004.11 1005.78 1007.18 1008.76 1010.07 1011.20 1011.97
999.02 999.16 999.37 999.93 999.37 999.53 1000.35 1000.29 1000.62 1000.70 1000.67 1000.55 1000.57 1000.16 1000.23 1000.46 1000.35 1000.46 1000.59 1001.03 1001.32 999.85 999.67 1002.41 1003.65 1004.75 1007.43 1009.15 1008.88 1009.54 1010.58 1012.12
999.63 1000.35 1000.43 1000.21 1000.43 1000.76 1000.96 1001.07 1001.16 1001.08 1000.86 1000.88 1000.61 1000.39 1000.71 1001.13 1001.10 1001.50 1002.07 1002.84 1004.05 1003.81 1003.47 1004.51 1007.71 1002.85 1007.86 1009.13 1009.56 1009.80 1010.09 1010.46
1000.07 1000.19 1000.26 1000.53 1000.87 1001.25 1001.56 1001.63 1001.63 1001.34 1001.38 1001.13 1000.84 1000.63 1001.04 1001.74 1002.02 1002.39 1003.23 1003.95 1005.22 1005.35 1005.25 1006.96 1007.78 1008.92 1010.08 1009.44 1009.33 1009.59 1011.34 1010.85
1000.62 1000.76 1000.71 1001.10 1001.57 1002.07 1002.22 1001.99 1001.88 1001.77 1001.91 1001.40 1001.18 1001.09 1001.71 1002.64 1003.22 1003.75 1004.28 1004.42 1005.27 1006.67 1007.65 1008.20 1008.79 1008.80 1009.44 1010.24 1009.27 1009.64 1011.53 1011.22
1000.83 1001.67 1002.07 1002.12 1002.23 1002.33 1002.36 1002.10 1002.34 1002.51 1002.67 1003.03 1002.77 1003.08 1003.35 1004.05 1004.66 1005.06 1005.22 1005.67 1006.02 1007.02 1008.23 1009.03 1009.33 1009.35 1009.41 1009.41 1010.08 1010.53 1011.00 1010.81
1001.94 1002.03 1002.33 1002.47 1002.32 1002.49 1002.39 1002.35 1002.47 1002.88 1003.38 1004.19 1004.59 1004.53 1005.16 1005.45 1006.14 1006.30 1007.08 1007.62 1007.06 1007.21 1007.85 1008.71 1009.31 1009.89 1009.98 1010.25 1010.37 1010.05 1010.37 1010.22
Wind_Speed
16 13 10 13 12 14 12 16 7 8 6 8 18 11 9 12 13 11 9 15 16 16 14 13 13 10 11 13 11 10 9 7
10 7 7 13 13 13 9 7 9 7 8 11 14 10 9 12 13 11 12 13 15 14 16 13 14 12 12 12 11 11 12 9
9 3 8 10 11 10 14 7 10 5 3 14 7 9 12 14 13 14 15 13 13 13 15 14 12 13 13 12 12 11 7 7
7 10 8 11 17 12 6 9 10 3 2 7 16 9 9 6 13 16 16 14 14 13 15 14 14 13 13 13 13 9 8 6
11 12 9 7 9 12 15 12 13 12 4 2 18 7 7 1 13 14 15 15 14 14 14 14 14 14 13 12 11 10 10 9
11 5 3 15 9 8 11 10 11 12 11 4 9 12 12 12 14 15 13 15 14 14 14 13 13 13 12 12 12 12 10 9
13 13 7 9 7 7 9 10 13 8 2 3 2 9 6 3 1 11 14 15 13 14 14 12 12 12 12 9 10 11 10 11
11 14 13 11 15 9 13 9 6 12 14 14 13 6 4 5 1 7 13 12 14 11 16 16 14 13 13 11 12 12 10 11
12 9 13 15 9 8 13 14 8 10 11 12 7 4 3 6 9 5 12 14 14 15 16 15 15 13 13 10 11 10 9 9
8 10 11 8 8 10 9 10 12 11 14 9 6 10 11 12 7 7 6 14 15 14 14 15 16 13 11 12 10 10 9 10
9 11 12 13 11 8 15 8 17 15 16 16 15 8 15 12 10 8 10 8 15 16 16 16 16 13 12 13 11 10 10 11
8 12 14 14 9 8 8 3 15 14 14 14 13 8 9 11 10 8 10 13 17 18 18 18 16 18 16 14 11 8 7 9
8 10 12 9 12 8 7 6 10 12 11 11 9 5 9 10 9 9 7 2 11 14 19 19 21 16 16 15 12 11 10 9
10 13 12 12 5 6 7 8 9 8 8 8 7 8 7 8 6 15 14 12 15 12 10 13 11 16 13 10 13 12 11 8
6 4 4 4 4 6 7 7 8 8 7 6 8 4 3 2 2 6 7 11 15 10 12 18 13 12 14 14 13 11 12 10
9 10 6 5 4 9 13 9 9 8 8 8 8 3 5 4 2 5 11 13 12 14 12 16 19 16 4 3 7 11 5 8
5 6 8 9 12 7 8 9 8 5 9 7 7 3 8 7 5 11 10 6 10 12 9 13 12 12 11 9 8 10 6 6
2 8 4 6 4 4 6 4 6 6 12 19 18 17 14 9 7 2 5 9 8 8 9 7 7 6 9 8 7 8 7 5
4 6 7 5 3 3 4 2 2 8 13 10 7 11 10 10 6 9 9 4 6 9 9 9 8 8 8 8 7 4 5 3
Wind_Direction
214 223 198 265 268 279 290 296 139 224 117 316 283 210 142 130 130 152 154 132 138 149 146 148 155 159 148 155 171 185 177 182
217 179 268 278 311 307 300 43 4 329 74 170 219 164 153 141 140 141 130 136 141 154 156 155 163 154 147 161 167 185 176 158
240 177 265 280 231 252 277 149 168 253 59 13 315 200 158 150 152 150 142 149 150 156 154 162 162 157 150 168 175 192 145 153
210 213 242 256 275 252 247 260 240 329 41 346 321 62 51 134 160 145 141 152 156 155 151 161 162 161 164 179 174 172 135 144
264 204 166 227 259 278 294 268 278 298 246 263 251 167 129 264 135 128 142 151 161 162 161 166 166 165 169 183 165 145 141 140
259 246 272 184 202 232 270 281 283 273 53 225 236 96 75 359 143 146 151 154 167 171 164 170 167 162 163 181 174 142 156 148
274 299 296 286 279 231 267 273 284 291 28 18 27 69 72 126 227 148 154 166 176 176 164 167 164 165 155 179 166 148 160 153
291 300 316 307 280 259 287 247 269 289 293 192 116 121 204 171 261 185 162 178 178 182 162 165 167 167 169 184 165 154 167 155
265 264 260 251 244 261 278 279 241 247 261 278 129 175 60 355 344 230 181 176 175 177 163 166 164 168 169 166 151 149 152 137
289 310 275 285 315 311 327 320 309 300 355 276 326 52 37 17 289 308 229 179 175 170 163 163 160 165 168 146 147 146 150 134
238 250 262 274 297 15 344 268 31 11 16 8 10 13 55 20 13 339 306 258 174 165 158 160 161 152 143 143 149 152 139 144
251 279 282 300 41 13 346 287 32 19 21 10 347 318 45 3 345 307 270 267 171 172 158 156 148 146 145 139 130 137 149 151
248 241 252 347 17 347 272 34 26 22 17 17 7 355 352 360 349 319 337 263 154 168 165 162 141 141 139 132 138 144 141 142
226 248 252 17 2 20 12 30 14 16 354 358 342 332 21 359 351 40 42 39 54 75 27 60 101 121 120 132 138 134 131 135
324 65 335 104 44 39 358 351 352 354 329 330 309 328 23 320 73 60 50 56 67 74 67 87 349 88 120 125 138 140 143 145
298 292 327 37 4 17 8 350 330 327 343 297 292 246 141 117 125 133 103 100 104 97 88 90 96 73 10 177 115 101 111 126
267 326 300 33 47 28 343 322 330 353 300 305 269 227 123 92 67 63 45 113 107 111 116 112 123 148 168 165 136 123 170 171
45 62 13 17 360 351 308 309 355 300 49 41 57 57 61 70 80 142 107 110 107 111 116 127 148 163 144 134 148 169 182 182
33 7 27 316 313 360 263 219 290 84 77 71 32 84 87 93 92 81 62 60 101 115 124 131 131 138 153 168 172 168 211 189